Waterloo, IA

6:00 PM CDT on April 26, 2017 (GMT -0500)
Waterloo Municipal

Weather History for KALO - January, 2014

Change the Weather History Date:

Friday, January 3, 2014

  Actual Average Record
Temperature  
Mean Temperature 2 °F 19 °F  
Max Temperature 24 °F 27 °F 51 °F (2007)
Min Temperature -21 °F 10 °F -21 °F (1904)
Degree Days  
Heating Degree Days 63 46  
Month to date heating degree days 195 138  
Since 1 July heating degree days 3349 2949  
Cooling Degree Days 0 0  
Month to date cooling degree days 0 0  
Year to date cooling degree days 0 0  
Moisture  
Dew Point -1 °F    
Average Humidity 77    
Maximum Humidity 86    
Minimum Humidity 67    
Precipitation  
Precipitation 0.00 in 0.03 in 1.77 in (1906)
Month to date precipitation 0.07 0.09  
Year to date precipitation 0.07 0.09  
Snow  
Snow 0.00 in 0.30 in 13.20 in (1971)
Month to date snowfall 1.0 0.8  
Since 1 July snowfall 25.8 14.1  
Snow Depth 4.00 in    
Sea Level Pressure  
Sea Level Pressure 30.08 in    
Wind  
Wind Speed 14 mph (SSE)    
Max Wind Speed 28 mph    
Max Gust Speed 35 mph    
Visibility 9 miles    
Events      
T = Trace of Precipitation, MM = Missing Value Source: NWS Daily Summary

Daily Weather History Graph

Daily Weather History Graph

Search for Another Location

Airport or City:

Trip Planner

Search our weather history database for the weather conditions in past years. The results will help you decide how hot, cold, wet, or windy it might be!

Date:

Astronomy

Jan. 03, 2014 Rise Set
Actual Time 7:39 AM CST 4:48 PM CST
Civil Twilight 7:07 AM CST 5:20 PM CST
Nautical Twilight 6:32 AM CST 5:56 PM CST
Astronomical Twilight 5:58 AM CST 6:30 PM CST
Moon 9:02 AM CST (1/3) 8:03 PM CST (1/3)
Length of Visible Light 10h 13m
Length of Day
9h 09m
Waxing Crescent, 8% of the Moon is Illuminated
Jan 3
Waxing Crescent
Jan 7
First Quarter
Jan 15
Full
Jan 23
Last Quarter
Jan 30
New

Hourly Weather History & Observations

Time (CST) Temp. Windchill Dew Point Humidity Pressure Visibility Wind Dir Wind Speed Gust Speed Precip Events Conditions
12:54 AM -20.0 °F - -24.0 °F 82% 30.48 in 10.0 mi Calm Calm - N/A   Clear
1:54 AM -18.9 °F - -23.1 °F 81% 30.48 in 10.0 mi Calm Calm - N/A   Clear
2:54 AM -20.0 °F - -24.0 °F 82% 30.48 in 10.0 mi Calm Calm - N/A   Clear
3:54 AM -20.9 °F - -26.0 °F 77% 30.45 in 10.0 mi Calm Calm - N/A   Clear
4:34 AM -16.1 °F -26.2 °F -18.9 °F 87% 30.33 in 2.5 mi SE 3.5 mph - N/A   Mostly Cloudy
4:41 AM -14.1 °F -23.9 °F -18.9 °F 79% 30.33 in 8.0 mi ESE 3.5 mph - N/A   Mostly Cloudy
4:54 AM -11.9 °F -23.8 °F -16.1 °F 82% 30.40 in 9.0 mi ESE 4.6 mph - N/A   Overcast
5:54 AM -5.1 °F -17.6 °F -9.9 °F 80% 30.36 in 10.0 mi SSE 5.8 mph - N/A   Clear
6:54 AM -2.9 °F -19.8 °F -7.1 °F 82% 30.34 in 10.0 mi South 10.4 mph - N/A   Mostly Cloudy
7:54 AM -0.0 °F -18.7 °F -5.1 °F 79% 30.31 in 10.0 mi South 13.8 mph - N/A   Partly Cloudy
8:54 AM 1.9 °F -18.1 °F -5.1 °F 72% 30.28 in 10.0 mi South 17.3 mph - N/A   Overcast
9:54 AM 3.9 °F -15.0 °F -4.0 °F 70% 30.24 in 10.0 mi South 16.1 mph - N/A   Overcast
10:54 AM 6.1 °F -13.3 °F -2.0 °F 69% 30.19 in 10.0 mi South 18.4 mph - N/A   Overcast
11:54 AM 9.0 °F -10.0 °F 1.0 °F 70% 30.09 in 10.0 mi South 19.6 mph 27.6 mph N/A   Overcast
12:54 PM 10.9 °F -8.3 °F 3.0 °F 70% 30.02 in 9.0 mi South 21.9 mph 29.9 mph N/A   Clear
1:54 PM 12.9 °F -5.3 °F 6.1 °F 74% 29.94 in 7.0 mi SSE 20.7 mph 29.9 mph N/A   Clear
2:54 PM 18.0 °F 1.7 °F 10.0 °F 71% 29.90 in 10.0 mi South 19.6 mph 27.6 mph N/A   Clear
3:54 PM 18.0 °F 2.2 °F 10.0 °F 71% 29.86 in 10.0 mi South 18.4 mph - N/A   Clear
4:54 PM 19.0 °F 3.6 °F 10.9 °F 71% 29.82 in 9.0 mi South 18.4 mph 31.1 mph N/A   Clear
5:54 PM 19.0 °F 2.7 °F 12.0 °F 74% 29.79 in 9.0 mi South 20.7 mph 29.9 mph N/A   Clear
6:54 PM 19.9 °F 4.3 °F 12.9 °F 74% 29.78 in 10.0 mi South 19.6 mph 28.8 mph N/A   Clear
7:54 PM 21.0 °F 6.2 °F 12.9 °F 71% 29.75 in 10.0 mi South 18.4 mph 33.4 mph N/A   Clear
8:54 PM 21.0 °F 5.4 °F 14.0 °F 74% 29.72 in 10.0 mi South 20.7 mph 27.6 mph N/A   Clear
9:54 PM 21.9 °F 7.8 °F 15.1 °F 75% 29.69 in 10.0 mi South 17.3 mph 27.6 mph N/A   Clear
10:54 PM 21.9 °F 8.7 °F 15.1 °F 75% 29.69 in 10.0 mi South 15.0 mph - N/A   Clear
11:54 PM 24.1 °F 10.1 °F 17.1 °F 75% 29.66 in 10.0 mi South 18.4 mph 24.2 mph N/A   Clear